owner,sensor,date,latitude,longitude,air_temperature,qcFlag 
COMPS,ioos:station:USF.COMPS:TAR:1,2010-04-01T00:00:00Z,28.1560,-82.7580,17.51,1111122 
COMPS,ioos:station:USF.COMPS:TAR:1,2010-04-01T00:06:00Z,28.1560,-82.7580,17.34,1111122 
COMPS,ioos:station:USF.COMPS:TAR:1,2010-04-01T00:12:00Z,28.1560,-82.7580,17.14,1111122 
COMPS,ioos:station:USF.COMPS:TAR:1,2010-04-01T00:18:00Z,28.1560,-82.7580,17.04,1111122 
COMPS,ioos:station:USF.COMPS:TAR:1,2010-04-01T00:24:00Z,28.1560,-82.7580,16.89,1111122 
COMPS,ioos:station:USF.COMPS:TAR:1,2010-04-01T00:30:00Z,28.1560,-82.7580,16.78,1111122 
COMPS,ioos:station:USF.COMPS:TAR:1,2010-04-01T00:36:00Z,28.1560,-82.7580,16.66,1111122 
COMPS,ioos:station:USF.COMPS:TAR:1,2010-04-01T00:42:00Z,28.1560,-82.7580,16.57,1111122 
COMPS,ioos:station:USF.COMPS:TAR:1,2010-04-01T00:48:00Z,28.1560,-82.7580,16.57,1111122 
COMPS,ioos:station:USF.COMPS:TAR:1,2010-04-01T00:54:00Z,28.1560,-82.7580,16.48,1111122 
COMPS,ioos:station:USF.COMPS:TAR:1,2010-04-01T01:00:00Z,28.1560,-82.7580,16.39,1111122 
COMPS,ioos:station:USF.COMPS:TAR:1,2010-04-01T01:06:00Z,28.1560,-82.7580,16.3,1111122 
COMPS,ioos:station:USF.COMPS:TAR:1,2010-04-01T01:12:00Z,28.1560,-82.7580,16.23,1111122 
COMPS,ioos:station:USF.COMPS:TAR:1,2010-04-01T01:18:00Z,28.1560,-82.7580,16.16,1111122 
COMPS,ioos:station:USF.COMPS:TAR:1,2010-04-01T01:24:00Z,28.1560,-82.7580,16.14,1111122 
COMPS,ioos:station:USF.COMPS:TAR:1,2010-04-01T01:30:00Z,28.1560,-82.7580,16.03,1111122 
COMPS,ioos:station:USF.COMPS:TAR:1,2010-04-01T01:36:00Z,28.1560,-82.7580,16.03,1111122 
COMPS,ioos:station:USF.COMPS:TAR:1,2010-04-01T01:42:00Z,28.1560,-82.7580,15.91,1111122 
COMPS,ioos:station:USF.COMPS:TAR:1,2010-04-01T01:48:00Z,28.1560,-82.7580,15.89,1111122 
COMPS,ioos:station:USF.COMPS:TAR:1,2010-04-01T01:54:00Z,28.1560,-82.7580,15.84,1111122 
COMPS,ioos:station:USF.COMPS:TAR:1,2010-04-01T02:00:00Z,28.1560,-82.7580,15.76,1111122 
COMPS,ioos:station:USF.COMPS:TAR:1,2010-04-01T02:06:00Z,28.1560,-82.7580,15.78,1111122 
COMPS,ioos:station:USF.COMPS:TAR:1,2010-04-01T02:12:00Z,28.1560,-82.7580,15.75,1111122 
COMPS,ioos:station:USF.COMPS:TAR:1,2010-04-01T02:18:00Z,28.1560,-82.7580,15.65,1111122 
COMPS,ioos:station:USF.COMPS:TAR:1,2010-04-01T02:24:00Z,28.1560,-82.7580,15.69,1111122 
COMPS,ioos:station:USF.COMPS:TAR:1,2010-04-01T02:30:00Z,28.1560,-82.7580,15.62,1111122 
COMPS,ioos:station:USF.COMPS:TAR:1,2010-04-01T02:36:00Z,28.1560,-82.7580,15.61,1111122 
COMPS,ioos:station:USF.COMPS:TAR:1,2010-04-01T02:42:00Z,28.1560,-82.7580,15.61,1111122 
COMPS,ioos:station:USF.COMPS:TAR:1,2010-04-01T02:48:00Z,28.1560,-82.7580,15.51,1111122 
COMPS,ioos:station:USF.COMPS:TAR:1,2010-04-01T02:54:00Z,28.1560,-82.7580,15.45,1111122 
COMPS,ioos:station:USF.COMPS:TAR:1,2010-04-01T03:00:00Z,28.1560,-82.7580,15.35,1111122 
COMPS,ioos:station:USF.COMPS:TAR:1,2010-04-01T03:06:00Z,28.1560,-82.7580,15.28,1111122 
COMPS,ioos:station:USF.COMPS:TAR:1,2010-04-01T03:12:00Z,28.1560,-82.7580,15.21,1111122 
COMPS,ioos:station:USF.COMPS:TAR:1,2010-04-01T03:18:00Z,28.1560,-82.7580,15.21,1111122 
COMPS,ioos:station:USF.COMPS:TAR:1,2010-04-01T03:24:00Z,28.1560,-82.7580,15.25,1111122 
COMPS,ioos:station:USF.COMPS:TAR:1,2010-04-01T03:30:00Z,28.1560,-82.7580,15.21,1111122 
COMPS,ioos:station:USF.COMPS:TAR:1,2010-04-01T03:36:00Z,28.1560,-82.7580,15.09,1111122 
COMPS,ioos:station:USF.COMPS:TAR:1,2010-04-01T03:42:00Z,28.1560,-82.7580,15.07,1111122 
COMPS,ioos:station:USF.COMPS:TAR:1,2010-04-01T03:48:00Z,28.1560,-82.7580,15.08,1111122 
COMPS,ioos:station:USF.COMPS:TAR:1,2010-04-01T03:54:00Z,28.1560,-82.7580,14.95,1111122 
COMPS,ioos:station:USF.COMPS:TAR:1,2010-04-01T04:00:00Z,28.1560,-82.7580,14.94,1111122 
COMPS,ioos:station:USF.COMPS:TAR:1,2010-04-01T04:06:00Z,28.1560,-82.7580,14.93,1111122 
COMPS,ioos:station:USF.COMPS:TAR:1,2010-04-01T04:12:00Z,28.1560,-82.7580,14.81,1111122 
COMPS,ioos:station:USF.COMPS:TAR:1,2010-04-01T04:18:00Z,28.1560,-82.7580,14.8,1111122 
COMPS,ioos:station:USF.COMPS:TAR:1,2010-04-01T04:24:00Z,28.1560,-82.7580,14.86,1111122 
COMPS,ioos:station:USF.COMPS:TAR:1,2010-04-01T04:30:00Z,28.1560,-82.7580,14.77,1111122 
COMPS,ioos:station:USF.COMPS:TAR:1,2010-04-01T04:36:00Z,28.1560,-82.7580,14.67,1111122 
COMPS,ioos:station:USF.COMPS:TAR:1,2010-04-01T04:42:00Z,28.1560,-82.7580,14.56,1111122 
COMPS,ioos:station:USF.COMPS:TAR:1,2010-04-01T04:48:00Z,28.1560,-82.7580,14.61,1111122 
COMPS,ioos:station:USF.COMPS:TAR:1,2010-04-01T04:54:00Z,28.1560,-82.7580,14.79,1111122 
COMPS,ioos:station:USF.COMPS:TAR:1,2010-04-01T05:00:00Z,28.1560,-82.7580,14.87,1111122 
COMPS,ioos:station:USF.COMPS:TAR:1,2010-04-01T05:06:00Z,28.1560,-82.7580,14.92,1111122 
COMPS,ioos:station:USF.COMPS:TAR:1,2010-04-01T05:12:00Z,28.1560,-82.7580,14.8,1111122 
COMPS,ioos:station:USF.COMPS:TAR:1,2010-04-01T05:18:00Z,28.1560,-82.7580,14.8,1111122 
COMPS,ioos:station:USF.COMPS:TAR:1,2010-04-01T05:24:00Z,28.1560,-82.7580,14.78,1111122 
COMPS,ioos:station:USF.COMPS:TAR:1,2010-04-01T05:30:00Z,28.1560,-82.7580,14.54,1111122 
COMPS,ioos:station:USF.COMPS:TAR:1,2010-04-01T05:36:00Z,28.1560,-82.7580,14.42,1111122 
COMPS,ioos:station:USF.COMPS:TAR:1,2010-04-01T05:42:00Z,28.1560,-82.7580,14.33,1111122 
COMPS,ioos:station:USF.COMPS:TAR:1,2010-04-01T05:48:00Z,28.1560,-82.7580,14.3,1111122 
COMPS,ioos:station:USF.COMPS:TAR:1,2010-04-01T05:54:00Z,28.1560,-82.7580,14.18,1111122 
COMPS,ioos:station:USF.COMPS:TAR:1,2010-04-01T06:00:00Z,28.1560,-82.7580,14.14,1111122 
COMPS,ioos:station:USF.COMPS:TAR:1,2010-04-01T06:06:00Z,28.1560,-82.7580,14.11,1111122 
COMPS,ioos:station:USF.COMPS:TAR:1,2010-04-01T06:12:00Z,28.1560,-82.7580,14.0,1111122 
COMPS,ioos:station:USF.COMPS:TAR:1,2010-04-01T06:18:00Z,28.1560,-82.7580,13.99,1111122 
COMPS,ioos:station:USF.COMPS:TAR:1,2010-04-01T06:24:00Z,28.1560,-82.7580,13.97,1111122 
COMPS,ioos:station:USF.COMPS:TAR:1,2010-04-01T06:30:00Z,28.1560,-82.7580,13.77,1111122 
COMPS,ioos:station:USF.COMPS:TAR:1,2010-04-01T06:36:00Z,28.1560,-82.7580,13.72,1111122 
COMPS,ioos:station:USF.COMPS:TAR:1,2010-04-01T06:42:00Z,28.1560,-82.7580,13.71,1111122 
COMPS,ioos:station:USF.COMPS:TAR:1,2010-04-01T06:48:00Z,28.1560,-82.7580,13.61,1111122 
COMPS,ioos:station:USF.COMPS:TAR:1,2010-04-01T06:54:00Z,28.1560,-82.7580,13.6,1111122 
COMPS,ioos:station:USF.COMPS:TAR:1,2010-04-01T07:00:00Z,28.1560,-82.7580,13.5,1111122 
COMPS,ioos:station:USF.COMPS:TAR:1,2010-04-01T07:06:00Z,28.1560,-82.7580,13.5,1111122 
COMPS,ioos:station:USF.COMPS:TAR:1,2010-04-01T07:12:00Z,28.1560,-82.7580,13.66,1111122 
COMPS,ioos:station:USF.COMPS:TAR:1,2010-04-01T07:18:00Z,28.1560,-82.7580,13.62,1111122 
COMPS,ioos:station:USF.COMPS:TAR:1,2010-04-01T07:24:00Z,28.1560,-82.7580,13.61,1111122 
COMPS,ioos:station:USF.COMPS:TAR:1,2010-04-01T07:30:00Z,28.1560,-82.7580,13.32,1111122 
COMPS,ioos:station:USF.COMPS:TAR:1,2010-04-01T07:36:00Z,28.1560,-82.7580,13.31,1111122 
COMPS,ioos:station:USF.COMPS:TAR:1,2010-04-01T07:42:00Z,28.1560,-82.7580,13.23,1111122 
COMPS,ioos:station:USF.COMPS:TAR:1,2010-04-01T07:48:00Z,28.1560,-82.7580,13.18,1111122 
COMPS,ioos:station:USF.COMPS:TAR:1,2010-04-01T07:54:00Z,28.1560,-82.7580,13.19,1111122 
COMPS,ioos:station:USF.COMPS:TAR:1,2010-04-01T08:00:00Z,28.1560,-82.7580,13.08,1111122 
COMPS,ioos:station:USF.COMPS:TAR:1,2010-04-01T08:06:00Z,28.1560,-82.7580,12.96,1111122 
COMPS,ioos:station:USF.COMPS:TAR:1,2010-04-01T08:12:00Z,28.1560,-82.7580,12.84,1111122 
COMPS,ioos:station:USF.COMPS:TAR:1,2010-04-01T08:18:00Z,28.1560,-82.7580,12.7,1111122 
COMPS,ioos:station:USF.COMPS:TAR:1,2010-04-01T08:24:00Z,28.1560,-82.7580,12.89,1111122 
COMPS,ioos:station:USF.COMPS:TAR:1,2010-04-01T08:30:00Z,28.1560,-82.7580,12.89,1111122 
COMPS,ioos:station:USF.COMPS:TAR:1,2010-04-01T08:36:00Z,28.1560,-82.7580,12.8,1111122 
COMPS,ioos:station:USF.COMPS:TAR:1,2010-04-01T08:42:00Z,28.1560,-82.7580,12.69,1111122 
COMPS,ioos:station:USF.COMPS:TAR:1,2010-04-01T08:48:00Z,28.1560,-82.7580,12.86,1111122 
COMPS,ioos:station:USF.COMPS:TAR:1,2010-04-01T08:54:00Z,28.1560,-82.7580,12.8,1111122 
COMPS,ioos:station:USF.COMPS:TAR:1,2010-04-01T09:00:00Z,28.1560,-82.7580,12.74,1111122 
COMPS,ioos:station:USF.COMPS:TAR:1,2010-04-01T09:06:00Z,28.1560,-82.7580,12.61,1111122 
COMPS,ioos:station:USF.COMPS:TAR:1,2010-04-01T09:12:00Z,28.1560,-82.7580,12.58,1111122 
COMPS,ioos:station:USF.COMPS:TAR:1,2010-04-01T09:18:00Z,28.1560,-82.7580,12.66,1111122 
COMPS,ioos:station:USF.COMPS:TAR:1,2010-04-01T09:24:00Z,28.1560,-82.7580,12.57,1111122 
COMPS,ioos:station:USF.COMPS:TAR:1,2010-04-01T09:30:00Z,28.1560,-82.7580,12.4,1111122 
COMPS,ioos:station:USF.COMPS:TAR:1,2010-04-01T09:36:00Z,28.1560,-82.7580,12.39,1111122 
COMPS,ioos:station:USF.COMPS:TAR:1,2010-04-01T09:42:00Z,28.1560,-82.7580,12.33,1111122 
COMPS,ioos:station:USF.COMPS:TAR:1,2010-04-01T09:48:00Z,28.1560,-82.7580,12.16,1111122 
COMPS,ioos:station:USF.COMPS:TAR:1,2010-04-01T09:54:00Z,28.1560,-82.7580,12.12,1111122 
COMPS,ioos:station:USF.COMPS:TAR:1,2010-04-01T10:00:00Z,28.1560,-82.7580,12.07,1111122 
COMPS,ioos:station:USF.COMPS:TAR:1,2010-04-01T10:06:00Z,28.1560,-82.7580,11.99,1111122 
COMPS,ioos:station:USF.COMPS:TAR:1,2010-04-01T10:12:00Z,28.1560,-82.7580,11.99,1111122 
COMPS,ioos:station:USF.COMPS:TAR:1,2010-04-01T10:18:00Z,28.1560,-82.7580,12.03,1111122 
COMPS,ioos:station:USF.COMPS:TAR:1,2010-04-01T10:24:00Z,28.1560,-82.7580,12.21,1111122 
COMPS,ioos:station:USF.COMPS:TAR:1,2010-04-01T10:30:00Z,28.1560,-82.7580,12.13,1111122 
COMPS,ioos:station:USF.COMPS:TAR:1,2010-04-01T10:36:00Z,28.1560,-82.7580,12.13,1111122 
COMPS,ioos:station:USF.COMPS:TAR:1,2010-04-01T10:42:00Z,28.1560,-82.7580,12.05,1111122 
COMPS,ioos:station:USF.COMPS:TAR:1,2010-04-01T10:48:00Z,28.1560,-82.7580,12.01,1111122 
COMPS,ioos:station:USF.COMPS:TAR:1,2010-04-01T10:54:00Z,28.1560,-82.7580,11.99,1111122 
COMPS,ioos:station:USF.COMPS:TAR:1,2010-04-01T11:00:00Z,28.1560,-82.7580,12.22,1111122 
COMPS,ioos:station:USF.COMPS:TAR:1,2010-04-01T11:06:00Z,28.1560,-82.7580,12.22,1111122 
COMPS,ioos:station:USF.COMPS:TAR:1,2010-04-01T11:12:00Z,28.1560,-82.7580,12.22,1111122 
COMPS,ioos:station:USF.COMPS:TAR:1,2010-04-01T11:18:00Z,28.1560,-82.7580,12.29,1111122 
COMPS,ioos:station:USF.COMPS:TAR:1,2010-04-01T11:24:00Z,28.1560,-82.7580,12.31,1111122 
COMPS,ioos:station:USF.COMPS:TAR:1,2010-04-01T11:30:00Z,28.1560,-82.7580,12.26,1111122 
COMPS,ioos:station:USF.COMPS:TAR:1,2010-04-01T11:36:00Z,28.1560,-82.7580,12.26,1111122 
COMPS,ioos:station:USF.COMPS:TAR:1,2010-04-01T11:42:00Z,28.1560,-82.7580,12.37,1111122 
COMPS,ioos:station:USF.COMPS:TAR:1,2010-04-01T11:48:00Z,28.1560,-82.7580,12.49,1111122 
COMPS,ioos:station:USF.COMPS:TAR:1,2010-04-01T11:54:00Z,28.1560,-82.7580,12.98,1111122 
COMPS,ioos:station:USF.COMPS:TAR:1,2010-04-01T12:00:00Z,28.1560,-82.7580,13.76,1111122 
COMPS,ioos:station:USF.COMPS:TAR:1,2010-04-01T12:06:00Z,28.1560,-82.7580,14.53,1111122 
COMPS,ioos:station:USF.COMPS:TAR:1,2010-04-01T12:12:00Z,28.1560,-82.7580,15.04,1111122 
COMPS,ioos:station:USF.COMPS:TAR:1,2010-04-01T12:18:00Z,28.1560,-82.7580,14.9,1111122 
COMPS,ioos:station:USF.COMPS:TAR:1,2010-04-01T12:24:00Z,28.1560,-82.7580,15.45,1111122 
COMPS,ioos:station:USF.COMPS:TAR:1,2010-04-01T12:30:00Z,28.1560,-82.7580,16.2,1111122 
COMPS,ioos:station:USF.COMPS:TAR:1,2010-04-01T12:36:00Z,28.1560,-82.7580,16.65,1111122 
COMPS,ioos:station:USF.COMPS:TAR:1,2010-04-01T12:42:00Z,28.1560,-82.7580,16.84,1111122 
COMPS,ioos:station:USF.COMPS:TAR:1,2010-04-01T12:48:00Z,28.1560,-82.7580,17.17,1111122 
COMPS,ioos:station:USF.COMPS:TAR:1,2010-04-01T12:54:00Z,28.1560,-82.7580,18.12,1111122 
COMPS,ioos:station:USF.COMPS:TAR:1,2010-04-01T13:00:00Z,28.1560,-82.7580,19.08,1111122 
COMPS,ioos:station:USF.COMPS:TAR:1,2010-04-01T13:06:00Z,28.1560,-82.7580,19.38,1111122 
COMPS,ioos:station:USF.COMPS:TAR:1,2010-04-01T13:12:00Z,28.1560,-82.7580,19.57,1111122 
COMPS,ioos:station:USF.COMPS:TAR:1,2010-04-01T13:18:00Z,28.1560,-82.7580,19.81,1111122 
COMPS,ioos:station:USF.COMPS:TAR:1,2010-04-01T13:24:00Z,28.1560,-82.7580,20.25,1111122 
COMPS,ioos:station:USF.COMPS:TAR:1,2010-04-01T13:30:00Z,28.1560,-82.7580,20.18,1111122 
COMPS,ioos:station:USF.COMPS:TAR:1,2010-04-01T13:36:00Z,28.1560,-82.7580,20.83,1111122 
COMPS,ioos:station:USF.COMPS:TAR:1,2010-04-01T13:42:00Z,28.1560,-82.7580,21.33,1111122 
COMPS,ioos:station:USF.COMPS:TAR:1,2010-04-01T13:48:00Z,28.1560,-82.7580,21.63,1111122 
COMPS,ioos:station:USF.COMPS:TAR:1,2010-04-01T13:54:00Z,28.1560,-82.7580,21.21,1111122 
COMPS,ioos:station:USF.COMPS:TAR:1,2010-04-01T14:00:00Z,28.1560,-82.7580,22.27,1111122 
COMPS,ioos:station:USF.COMPS:TAR:1,2010-04-01T14:06:00Z,28.1560,-82.7580,21.65,1111122 
COMPS,ioos:station:USF.COMPS:TAR:1,2010-04-01T14:12:00Z,28.1560,-82.7580,21.72,1111122 
COMPS,ioos:station:USF.COMPS:TAR:1,2010-04-01T14:18:00Z,28.1560,-82.7580,22.65,1111122 
COMPS,ioos:station:USF.COMPS:TAR:1,2010-04-01T14:24:00Z,28.1560,-82.7580,22.64,1111122 
COMPS,ioos:station:USF.COMPS:TAR:1,2010-04-01T14:30:00Z,28.1560,-82.7580,23.58,1111122 
COMPS,ioos:station:USF.COMPS:TAR:1,2010-04-01T14:36:00Z,28.1560,-82.7580,23.65,1111122 
COMPS,ioos:station:USF.COMPS:TAR:1,2010-04-01T14:42:00Z,28.1560,-82.7580,24.7,1111122 
COMPS,ioos:station:USF.COMPS:TAR:1,2010-04-01T14:48:00Z,28.1560,-82.7580,25.56,1111122 
COMPS,ioos:station:USF.COMPS:TAR:1,2010-04-01T14:54:00Z,28.1560,-82.7580,26.14,1111122 
COMPS,ioos:station:USF.COMPS:TAR:1,2010-04-01T15:00:00Z,28.1560,-82.7580,26.85,1111122 
COMPS,ioos:station:USF.COMPS:TAR:1,2010-04-01T15:06:00Z,28.1560,-82.7580,27.77,1111122 
COMPS,ioos:station:USF.COMPS:TAR:1,2010-04-01T15:12:00Z,28.1560,-82.7580,27.62,1111122 
COMPS,ioos:station:USF.COMPS:TAR:1,2010-04-01T15:18:00Z,28.1560,-82.7580,27.26,1111122 
COMPS,ioos:station:USF.COMPS:TAR:1,2010-04-01T15:24:00Z,28.1560,-82.7580,27.32,1111122 
COMPS,ioos:station:USF.COMPS:TAR:1,2010-04-01T15:30:00Z,28.1560,-82.7580,27.93,1111122 
COMPS,ioos:station:USF.COMPS:TAR:1,2010-04-01T15:36:00Z,28.1560,-82.7580,28.18,1111122 
COMPS,ioos:station:USF.COMPS:TAR:1,2010-04-01T15:42:00Z,28.1560,-82.7580,27.75,1111122 
COMPS,ioos:station:USF.COMPS:TAR:1,2010-04-01T15:48:00Z,28.1560,-82.7580,27.35,1111122 
COMPS,ioos:station:USF.COMPS:TAR:1,2010-04-01T15:54:00Z,28.1560,-82.7580,27.03,1111122 
COMPS,ioos:station:USF.COMPS:TAR:1,2010-04-01T16:00:00Z,28.1560,-82.7580,26.99,1111122 
COMPS,ioos:station:USF.COMPS:TAR:1,2010-04-01T16:06:00Z,28.1560,-82.7580,27.28,1111122 
COMPS,ioos:station:USF.COMPS:TAR:1,2010-04-01T16:12:00Z,28.1560,-82.7580,27.52,1111122 
COMPS,ioos:station:USF.COMPS:TAR:1,2010-04-01T16:18:00Z,28.1560,-82.7580,27.64,1111122 
COMPS,ioos:station:USF.COMPS:TAR:1,2010-04-01T16:24:00Z,28.1560,-82.7580,27.87,1111122 
COMPS,ioos:station:USF.COMPS:TAR:1,2010-04-01T16:30:00Z,28.1560,-82.7580,27.88,1111122 
COMPS,ioos:station:USF.COMPS:TAR:1,2010-04-01T16:36:00Z,28.1560,-82.7580,27.9,1111122 
COMPS,ioos:station:USF.COMPS:TAR:1,2010-04-01T16:42:00Z,28.1560,-82.7580,27.96,1111122 
COMPS,ioos:station:USF.COMPS:TAR:1,2010-04-01T16:48:00Z,28.1560,-82.7580,27.63,1111122 
COMPS,ioos:station:USF.COMPS:TAR:1,2010-04-01T16:54:00Z,28.1560,-82.7580,27.71,1111122 
COMPS,ioos:station:USF.COMPS:TAR:1,2010-04-01T17:00:00Z,28.1560,-82.7580,27.66,1111122 
COMPS,ioos:station:USF.COMPS:TAR:1,2010-04-01T17:06:00Z,28.1560,-82.7580,27.69,1111122 
COMPS,ioos:station:USF.COMPS:TAR:1,2010-04-01T17:12:00Z,28.1560,-82.7580,27.69,1111122 
COMPS,ioos:station:USF.COMPS:TAR:1,2010-04-01T17:18:00Z,28.1560,-82.7580,27.66,1111122 
COMPS,ioos:station:USF.COMPS:TAR:1,2010-04-01T17:24:00Z,28.1560,-82.7580,27.71,1111122 
COMPS,ioos:station:USF.COMPS:TAR:1,2010-04-01T17:30:00Z,28.1560,-82.7580,27.54,1111122 
COMPS,ioos:station:USF.COMPS:TAR:1,2010-04-01T17:36:00Z,28.1560,-82.7580,27.56,1111122 
COMPS,ioos:station:USF.COMPS:TAR:1,2010-04-01T17:42:00Z,28.1560,-82.7580,27.77,1111122 
COMPS,ioos:station:USF.COMPS:TAR:1,2010-04-01T17:48:00Z,28.1560,-82.7580,27.8,1111122 
COMPS,ioos:station:USF.COMPS:TAR:1,2010-04-01T17:54:00Z,28.1560,-82.7580,27.74,1111122 
COMPS,ioos:station:USF.COMPS:TAR:1,2010-04-01T18:00:00Z,28.1560,-82.7580,27.77,1111122 
COMPS,ioos:station:USF.COMPS:TAR:1,2010-04-01T18:06:00Z,28.1560,-82.7580,27.67,1111122 
COMPS,ioos:station:USF.COMPS:TAR:1,2010-04-01T18:12:00Z,28.1560,-82.7580,27.78,1111122 
COMPS,ioos:station:USF.COMPS:TAR:1,2010-04-01T18:18:00Z,28.1560,-82.7580,27.83,1111122 
COMPS,ioos:station:USF.COMPS:TAR:1,2010-04-01T18:24:00Z,28.1560,-82.7580,27.86,1111122 
COMPS,ioos:station:USF.COMPS:TAR:1,2010-04-01T18:30:00Z,28.1560,-82.7580,27.77,1111122 
COMPS,ioos:station:USF.COMPS:TAR:1,2010-04-01T18:36:00Z,28.1560,-82.7580,27.7,1111122 
COMPS,ioos:station:USF.COMPS:TAR:1,2010-04-01T18:42:00Z,28.1560,-82.7580,27.5,1111122 
COMPS,ioos:station:USF.COMPS:TAR:1,2010-04-01T18:48:00Z,28.1560,-82.7580,27.47,1111122 
COMPS,ioos:station:USF.COMPS:TAR:1,2010-04-01T18:54:00Z,28.1560,-82.7580,27.43,1111122 
COMPS,ioos:station:USF.COMPS:TAR:1,2010-04-01T19:00:00Z,28.1560,-82.7580,27.35,1111122 
COMPS,ioos:station:USF.COMPS:TAR:1,2010-04-01T19:06:00Z,28.1560,-82.7580,27.34,1111122 
COMPS,ioos:station:USF.COMPS:TAR:1,2010-04-01T19:12:00Z,28.1560,-82.7580,27.36,1111122 
COMPS,ioos:station:USF.COMPS:TAR:1,2010-04-01T19:18:00Z,28.1560,-82.7580,27.35,1111122 
COMPS,ioos:station:USF.COMPS:TAR:1,2010-04-01T19:24:00Z,28.1560,-82.7580,27.34,1111122 
COMPS,ioos:station:USF.COMPS:TAR:1,2010-04-01T19:30:00Z,28.1560,-82.7580,27.22,1111122 
COMPS,ioos:station:USF.COMPS:TAR:1,2010-04-01T19:36:00Z,28.1560,-82.7580,27.12,1111122 
COMPS,ioos:station:USF.COMPS:TAR:1,2010-04-01T19:42:00Z,28.1560,-82.7580,27.0,1111122 
COMPS,ioos:station:USF.COMPS:TAR:1,2010-04-01T19:48:00Z,28.1560,-82.7580,26.92,1111122 
COMPS,ioos:station:USF.COMPS:TAR:1,2010-04-01T19:54:00Z,28.1560,-82.7580,26.73,1111122 
COMPS,ioos:station:USF.COMPS:TAR:1,2010-04-01T20:00:00Z,28.1560,-82.7580,26.53,1111122 
COMPS,ioos:station:USF.COMPS:TAR:1,2010-04-01T20:06:00Z,28.1560,-82.7580,26.44,1111122 
COMPS,ioos:station:USF.COMPS:TAR:1,2010-04-01T20:12:00Z,28.1560,-82.7580,26.45,1111122 
COMPS,ioos:station:USF.COMPS:TAR:1,2010-04-01T20:18:00Z,28.1560,-82.7580,26.36,1111122 
COMPS,ioos:station:USF.COMPS:TAR:1,2010-04-01T20:24:00Z,28.1560,-82.7580,26.14,1111122 
COMPS,ioos:station:USF.COMPS:TAR:1,2010-04-01T20:30:00Z,28.1560,-82.7580,25.94,1111122 
COMPS,ioos:station:USF.COMPS:TAR:1,2010-04-01T20:36:00Z,28.1560,-82.7580,25.86,1111122 
COMPS,ioos:station:USF.COMPS:TAR:1,2010-04-01T20:42:00Z,28.1560,-82.7580,25.79,1111122 
COMPS,ioos:station:USF.COMPS:TAR:1,2010-04-01T20:48:00Z,28.1560,-82.7580,25.8,1111122 
COMPS,ioos:station:USF.COMPS:TAR:1,2010-04-01T20:54:00Z,28.1560,-82.7580,25.77,1111122 
COMPS,ioos:station:USF.COMPS:TAR:1,2010-04-01T21:00:00Z,28.1560,-82.7580,25.61,1111122 
COMPS,ioos:station:USF.COMPS:TAR:1,2010-04-01T21:06:00Z,28.1560,-82.7580,25.41,1111122 
COMPS,ioos:station:USF.COMPS:TAR:1,2010-04-01T21:12:00Z,28.1560,-82.7580,25.35,1111122 
COMPS,ioos:station:USF.COMPS:TAR:1,2010-04-01T21:18:00Z,28.1560,-82.7580,25.16,1111122 
COMPS,ioos:station:USF.COMPS:TAR:1,2010-04-01T21:24:00Z,28.1560,-82.7580,25.03,1111122 
COMPS,ioos:station:USF.COMPS:TAR:1,2010-04-01T21:30:00Z,28.1560,-82.7580,24.81,1111122 
COMPS,ioos:station:USF.COMPS:TAR:1,2010-04-01T21:36:00Z,28.1560,-82.7580,24.62,1111122 
COMPS,ioos:station:USF.COMPS:TAR:1,2010-04-01T21:42:00Z,28.1560,-82.7580,24.31,1111122 
COMPS,ioos:station:USF.COMPS:TAR:1,2010-04-01T21:48:00Z,28.1560,-82.7580,24.18,1111122 
COMPS,ioos:station:USF.COMPS:TAR:1,2010-04-01T21:54:00Z,28.1560,-82.7580,23.95,1111122 
COMPS,ioos:station:USF.COMPS:TAR:1,2010-04-01T22:00:00Z,28.1560,-82.7580,23.75,1111122 
COMPS,ioos:station:USF.COMPS:TAR:1,2010-04-01T22:06:00Z,28.1560,-82.7580,23.51,1111122 
COMPS,ioos:station:USF.COMPS:TAR:1,2010-04-01T22:12:00Z,28.1560,-82.7580,23.41,1111122 
COMPS,ioos:station:USF.COMPS:TAR:1,2010-04-01T22:18:00Z,28.1560,-82.7580,23.31,1111122 
COMPS,ioos:station:USF.COMPS:TAR:1,2010-04-01T22:24:00Z,28.1560,-82.7580,23.26,1111122 
COMPS,ioos:station:USF.COMPS:TAR:1,2010-04-01T22:30:00Z,28.1560,-82.7580,23.02,1111122 
COMPS,ioos:station:USF.COMPS:TAR:1,2010-04-01T22:36:00Z,28.1560,-82.7580,22.6,1111122 
COMPS,ioos:station:USF.COMPS:TAR:1,2010-04-01T22:42:00Z,28.1560,-82.7580,22.42,1111122 
COMPS,ioos:station:USF.COMPS:TAR:1,2010-04-01T22:48:00Z,28.1560,-82.7580,22.32,1111122 
COMPS,ioos:station:USF.COMPS:TAR:1,2010-04-01T22:54:00Z,28.1560,-82.7580,22.02,1111122 
COMPS,ioos:station:USF.COMPS:TAR:1,2010-04-01T23:00:00Z,28.1560,-82.7580,21.81,1111122 
COMPS,ioos:station:USF.COMPS:TAR:1,2010-04-01T23:06:00Z,28.1560,-82.7580,21.5,1111122 
COMPS,ioos:station:USF.COMPS:TAR:1,2010-04-01T23:12:00Z,28.1560,-82.7580,21.17,1111122 
COMPS,ioos:station:USF.COMPS:TAR:1,2010-04-01T23:18:00Z,28.1560,-82.7580,20.97,1111122 
COMPS,ioos:station:USF.COMPS:TAR:1,2010-04-01T23:24:00Z,28.1560,-82.7580,20.76,1111122 
COMPS,ioos:station:USF.COMPS:TAR:1,2010-04-01T23:30:00Z,28.1560,-82.7580,20.49,1111122 
COMPS,ioos:station:USF.COMPS:TAR:1,2010-04-01T23:36:00Z,28.1560,-82.7580,20.32,1111122 
COMPS,ioos:station:USF.COMPS:TAR:1,2010-04-01T23:42:00Z,28.1560,-82.7580,20.02,1111122 
COMPS,ioos:station:USF.COMPS:TAR:1,2010-04-01T23:48:00Z,28.1560,-82.7580,19.73,1111122 
COMPS,ioos:station:USF.COMPS:TAR:1,2010-04-01T23:54:00Z,28.1560,-82.7580,19.49,1111122 
COMPS,ioos:station:USF.COMPS:TAR:1,2010-04-02T00:00:00Z,28.1560,-82.7580,19.17,1111122 
COMPS,ioos:station:USF.COMPS:TAR:1,2010-04-02T00:06:00Z,28.1560,-82.7580,18.93,1111122 
COMPS,ioos:station:USF.COMPS:TAR:1,2010-04-02T00:12:00Z,28.1560,-82.7580,18.74,1111122 
COMPS,ioos:station:USF.COMPS:TAR:1,2010-04-02T00:18:00Z,28.1560,-82.7580,18.48,1111122 
COMPS,ioos:station:USF.COMPS:TAR:1,2010-04-02T00:24:00Z,28.1560,-82.7580,18.49,1111122 
COMPS,ioos:station:USF.COMPS:TAR:1,2010-04-02T00:30:00Z,28.1560,-82.7580,18.29,1111122 
COMPS,ioos:station:USF.COMPS:TAR:1,2010-04-02T00:36:00Z,28.1560,-82.7580,18.17,1111122 
COMPS,ioos:station:USF.COMPS:TAR:1,2010-04-02T00:42:00Z,28.1560,-82.7580,18.05,1111122 
COMPS,ioos:station:USF.COMPS:TAR:1,2010-04-02T00:48:00Z,28.1560,-82.7580,17.92,1111122 
COMPS,ioos:station:USF.COMPS:TAR:1,2010-04-02T00:54:00Z,28.1560,-82.7580,17.9,1111122 
COMPS,ioos:station:USF.COMPS:TAR:1,2010-04-02T01:00:00Z,28.1560,-82.7580,17.79,1111122 
COMPS,ioos:station:USF.COMPS:TAR:1,2010-04-02T01:06:00Z,28.1560,-82.7580,17.73,1111122 
COMPS,ioos:station:USF.COMPS:TAR:1,2010-04-02T01:12:00Z,28.1560,-82.7580,17.65,1111122 
COMPS,ioos:station:USF.COMPS:TAR:1,2010-04-02T01:18:00Z,28.1560,-82.7580,17.58,1111122 
COMPS,ioos:station:USF.COMPS:TAR:1,2010-04-02T01:24:00Z,28.1560,-82.7580,17.56,1111122 
COMPS,ioos:station:USF.COMPS:TAR:1,2010-04-02T01:30:00Z,28.1560,-82.7580,17.52,1111122 
COMPS,ioos:station:USF.COMPS:TAR:1,2010-04-02T01:36:00Z,28.1560,-82.7580,17.53,1111122 
COMPS,ioos:station:USF.COMPS:TAR:1,2010-04-02T01:42:00Z,28.1560,-82.7580,17.48,1111122 
COMPS,ioos:station:USF.COMPS:TAR:1,2010-04-02T01:48:00Z,28.1560,-82.7580,17.38,1111122 
COMPS,ioos:station:USF.COMPS:TAR:1,2010-04-02T01:54:00Z,28.1560,-82.7580,17.24,1111122 
COMPS,ioos:station:USF.COMPS:TAR:1,2010-04-02T02:00:00Z,28.1560,-82.7580,17.11,1111122 
COMPS,ioos:station:USF.COMPS:TAR:1,2010-04-02T02:06:00Z,28.1560,-82.7580,17.14,1111122 
COMPS,ioos:station:USF.COMPS:TAR:1,2010-04-02T02:12:00Z,28.1560,-82.7580,17.5,1111122 
COMPS,ioos:station:USF.COMPS:TAR:1,2010-04-02T02:18:00Z,28.1560,-82.7580,17.43,1111122 
COMPS,ioos:station:USF.COMPS:TAR:1,2010-04-02T02:24:00Z,28.1560,-82.7580,17.18,1111122 
COMPS,ioos:station:USF.COMPS:TAR:1,2010-04-02T02:30:00Z,28.1560,-82.7580,16.89,1111122 
COMPS,ioos:station:USF.COMPS:TAR:1,2010-04-02T02:36:00Z,28.1560,-82.7580,16.67,1111122 
COMPS,ioos:station:USF.COMPS:TAR:1,2010-04-02T02:42:00Z,28.1560,-82.7580,16.57,1111122 
COMPS,ioos:station:USF.COMPS:TAR:1,2010-04-02T02:48:00Z,28.1560,-82.7580,16.54,1111122 
COMPS,ioos:station:USF.COMPS:TAR:1,2010-04-02T02:54:00Z,28.1560,-82.7580,16.44,1111122 
COMPS,ioos:station:USF.COMPS:TAR:1,2010-04-02T03:00:00Z,28.1560,-82.7580,16.44,1111122 
COMPS,ioos:station:USF.COMPS:TAR:1,2010-04-02T03:06:00Z,28.1560,-82.7580,16.45,1111122 